{"data":{"norad_id":68137,"epoch":"2026-05-25T05:35:12.135840Z","epoch_age_seconds":58375,"freshness":"FRESH","line1":"1 68137U 26047J   26145.23277935 -.00000089  00000+0  74908-4 0  9999","line2":"2 68137  50.0044 138.1557 0000170   9.2443 350.8433 13.29330653 10024","mean_motion":13.29330653,"eccentricity":1.7e-5,"inclination_deg":50.0044,"raan_deg":138.1557,"arg_perigee_deg":9.2443,"mean_anomaly_deg":350.8433,"bstar":7.4908e-5,"rev_number":1002,"period_min":108.32519334074,"perigee_km":1149.1610402727,"apogee_km":1149.4169727569,"semimajor_km":7527.4260065148,"source":"CELESTRAK","updated_at":"2026-05-25T13:38:07.577890Z"}}